sat.trackr.live / text

‹ back to catalog

STARLINK-31568

NORAD 59412 · 2024-064Q

PAYLOAD ACTIVE UNKNOWN

§ Identity

Operator
Country
US
Launch date
2024-04-05
Launch site
AFETR
Launch vehicle
Mass (kg)
RCS (m²)

Purposes: comms

External: N2YO · Heavens-Above · Gunter

§ Orbital elements

Epoch: 2026-09-21T15:36:34.089120Z

Period
94.27 min
Inclination
43.0036°
Eccentricity
0.0001258
Mean motion
15.27577019 rev/d
Perigee alt
482.2 km
Apogee alt
483.9 km
Semi-major
6,861.2 km
B*
3.0526e-5
RAAN
29.6432°
Arg perigee
275.6494°
Mean anomaly
84.4214°
Rev number
13,919

§ Raw data

STARLINK-315681 59412U 24064Q   26264.65039455  .00000578  00000+0  30526-4 0  99932 59412  43.0036  29.6432 0001258 275.6494  84.4214 15.27577019139198

JSON: /api/v1/satellites/59412 · /tle

For live sub-satellite position, see the globe view (requires WebGL).

§ Visibility from observer

Set your observer location to see the next 7 days of passes ≥ 10°. The values pass through the URL so the page stays shareable.

No JS? Fill the form by hand. The geolocation button needs JavaScript.